Weather History for Baltimore, MD

Change the Weather History Date:

Tuesday, October 9, 2012

  Actual Average Record
Temperature  
Mean Temperature 54 °F 58 °F  
Max Temperature 61 °F 69 °F 94 °F (2007)
Min Temperature 47 °F 48 °F 28 °F (2001)
Degree Days  
Heating Degree Days 11 8  
Month to date heating degree days 50 57  
Since 1 July heating degree days 78 110  
Cooling Degree Days 0 1  
Month to date cooling degree days 24 10  
Year to date cooling degree days 1565 1155  
Growing Degree Days 4 (Base 50)    
Moisture  
Dew Point 49 °F    
Average Humidity 81    
Maximum Humidity 93    
Minimum Humidity 69    
Precipitation  
Precipitation 0.08 in 0.11 in 1.94 in (1992)
Month to date precipitation 0.79 1.02  
Year to date precipitation 25.47 32.90  
Snow  
Snow 0.00 in 0.00 in T in (1895)
Month to date snowfall 0.0 0.0  
Since 1 July snowfall 0.0 0.0  
Snow Depth 0.00 in    
Sea Level Pressure  
Sea Level Pressure 30.14 in    
Wind  
Wind Speed 4 mph (North)    
Max Wind Speed 10 mph    
Max Gust Speed 13 mph    
Visibility 8 miles    
Events Rain    
T = Trace of Precipitation, MM = Missing Value Source: NWS Daily Summary

Daily Weather History Graph

Daily Weather History Graph

Search for Another Location

Airport:

Trip Planner

Search our weather history database for the weather conditions in past years. The results will help you decide how hot, cold, wet, or windy it might be!

Date:

Astronomy

Oct. 09, 2012 Rise Set
Actual Time 7:10 AM EDT 6:36 PM EDT
Civil Twilight 6:44 AM EDT 7:02 PM EDT
Nautical Twilight 6:13 AM EDT 7:33 PM EDT
Astronomical Twilight 5:42 AM EDT 8:04 PM EDT
Moon 12:47 AM EDT (10/9) 3:00 PM EDT (10/9)
Length of Visible Light 12h 18m
Length of Day
11h 25m
Last Quarter, 37% of the Moon is Illuminated
Oct 9
Last Quarter
Oct 15
New
Oct 21
First Quarter
Oct 29
Full
Nov 6
Last Quarter

Hourly Weather History & Observations

Time (EDT) Temp. Dew Point Humidity Pressure Visibility Wind Dir Wind Speed Gust Speed Precip Events Conditions
12:54 AM 48.2 °F 42.8 °F 82% 30.20 in 10.0 mi North 5.8 mph - N/A Rain Light Rain
1:54 AM 48.0 °F 42.1 °F 80% 30.20 in 10.0 mi North 5.8 mph - 0.00 in Rain Light Rain
2:54 AM 48.0 °F 43.0 °F 83% 30.19 in 6.0 mi North 5.8 mph - 0.01 in Rain Light Rain
3:54 AM 46.9 °F 44.1 °F 90% 30.18 in 7.0 mi North 4.6 mph - 0.03 in Rain Light Rain
4:54 AM 48.0 °F 45.0 °F 89% 30.20 in 6.0 mi West 4.6 mph - 0.03 in   Overcast
5:23 AM 48.2 °F 44.6 °F 87% 30.19 in 7.0 mi WNW 3.5 mph - 0.01 in   Overcast
5:33 AM 48.2 °F 44.6 °F 87% 30.19 in 7.0 mi NNW 3.5 mph - 0.01 in Rain Light Rain
5:54 AM 48.0 °F 45.0 °F 89% 30.19 in 5.0 mi NNW 4.6 mph - 0.01 in Rain Light Rain
6:54 AM 48.9 °F 45.0 °F 86% 30.18 in 10.0 mi North 5.8 mph - 0.00 in   Mostly Cloudy
7:23 AM 48.2 °F 46.4 °F 93% 30.19 in 10.0 mi Variable 3.5 mph - N/A   Mostly Cloudy
7:54 AM 48.9 °F 46.0 °F 90% 30.19 in 10.0 mi Variable 3.5 mph - N/A   Mostly Cloudy
8:54 AM 51.1 °F 46.9 °F 86% 30.19 in 9.0 mi North 3.5 mph - N/A   Mostly Cloudy
9:54 AM 53.1 °F 48.0 °F 83% 30.20 in 10.0 mi NNE 4.6 mph - N/A   Overcast
10:54 AM 54.0 °F 48.0 °F 80% 30.19 in 10.0 mi NNE 6.9 mph - N/A   Overcast
11:54 AM 57.0 °F 48.9 °F 74% 30.17 in 10.0 mi North 4.6 mph - N/A   Mostly Cloudy
12:54 PM 57.9 °F 48.9 °F 72% 30.15 in 10.0 mi North 4.6 mph - N/A   Overcast
1:54 PM 59.0 °F 50.0 °F 72% 30.12 in 10.0 mi Calm Calm - N/A   Overcast
2:54 PM 60.1 °F 50.0 °F 69% 30.12 in 10.0 mi NNE 5.8 mph - N/A   Overcast
3:54 PM 60.1 °F 51.1 °F 72% 30.10 in 10.0 mi East 4.6 mph - N/A   Mostly Cloudy
4:54 PM 60.1 °F 51.1 °F 72% 30.10 in 10.0 mi NNE 4.6 mph - N/A   Overcast
5:54 PM 59.0 °F 51.1 °F 75% 30.10 in 10.0 mi NNE 4.6 mph - N/A   Mostly Cloudy
6:38 PM 59.0 °F 51.8 °F 77% 30.10 in 10.0 mi NNE 6.9 mph - N/A   Mostly Cloudy
6:54 PM 59.0 °F 51.8 °F 77% 30.10 in 10.0 mi NE 5.8 mph - N/A   Mostly Cloudy
7:54 PM 57.9 °F 52.0 °F 81% 30.09 in 10.0 mi NNE 4.6 mph - 0.00 in   Overcast
8:54 PM 57.9 °F 52.0 °F 81% 30.09 in 6.0 mi NNE 3.5 mph - N/A   Haze
9:54 PM 57.0 °F 53.1 °F 87% 30.09 in 6.0 mi Calm Calm - 0.00 in   Light Drizzle
10:16 PM 57.2 °F 53.6 °F 88% 30.08 in 6.0 mi Calm Calm - 0.00 in   Overcast
10:38 PM 55.4 °F 53.6 °F 94% 30.08 in 2.5 mi Calm Calm - 0.00 in   Light Drizzle
10:45 PM 55.4 °F 53.6 °F 94% 30.08 in 2.5 mi Calm Calm - 0.00 in   Light Drizzle
10:54 PM 55.9 °F 54.0 °F 93% 30.08 in 2.5 mi Calm Calm - 0.00 in   Light Drizzle
11:07 PM 55.4 °F 53.6 °F 94% 30.08 in 1.8 mi Calm Calm - 0.00 in   Light Drizzle
11:33 PM 55.4 °F 53.6 °F 94% 30.06 in 2.0 mi North 3.5 mph - 0.00 in   Overcast
11:54 PM 55.9 °F 54.0 °F 93% 30.06 in 2.5 mi Calm Calm - 0.00 in   Overcast
11:57 PM 55.4 °F 53.6 °F 94% 30.06 in 3.0 mi Calm Calm - N/A   Overcast